EST,Max TemperatureF,Mean TemperatureF,Min TemperatureF,Max Dew PointF,MeanDew PointF,Min DewpointF,Max Humidity, Mean Humidity, Min Humidity, Max Sea Level PressureIn, Mean Sea Level PressureIn, Min Sea Level PressureIn, Max VisibilityMiles, Mean VisibilityMiles, Min VisibilityMiles, Max Wind SpeedMPH, Mean Wind SpeedMPH, Max Gust SpeedMPH,PrecipitationIn, CloudCover, Events, WindDirDegrees
2012-11-1,51,46,41,38,37,35,81,69,61,29.68,29.64,29.61,10,10,10,15,7,23,0.00,5,,255
2012-11-2,52,47,43,37,34,29,71,62,54,29.85,29.73,29.68,10,10,10,16,11,25,0.00,7,Rain,289
2012-11-3,48,45,42,32,29,27,67,54,46,30.03,29.93,29.85,10,10,10,20,11,26,0.00,8,,311
2012-11-4,48,40,35,30,27,25,70,57,51,30.06,30.03,30.00,10,10,10,14,9,20,0.00,4,,315
2012-11-5,45,40,33,28,25,21,61,56,46,30.21,30.09,30.02,10,10,10,14,11,24,0.00,6,,344
2012-11-6,44,36,28,24,21,18,69,56,43,30.25,30.18,30.07,10,10,10,9,7,,0.00,3,,39
2012-11-7,39,36,33,34,30,21,96,83,52,30.02,29.89,29.83,10,4,1,22,15,31,0.48,7,Rain-Snow,359
2012-11-8,50,42,33,30,22,16,87,48,26,30.00,29.87,29.81,10,10,3,21,13,34,0.01,4,Snow,334
2012-11-9,55,44,33,32,27,21,79,53,35,30.25,30.13,30.01,10,10,9,17,8,26,0.00,0,,308
2012-11-10,55,44,33,38,35,30,89,69,47,30.43,30.34,30.25,10,9,6,5,1,,0.00,3,,85
2012-11-11,69,52,35,48,40,35,100,83,33,30.50,30.46,30.42,10,5,0,8,2,,0.00,1,Fog,189
2012-11-12,69,54,39,57,48,38,100,85,54,30.48,30.39,30.19,10,5,0,10,1,18,0.00,1,Fog,181
2012-11-13,63,50,37,58,39,25,94,79,58,30.48,30.33,30.16,10,9,2,25,12,34,0.18,6,Rain,328
2012-11-14,48,40,32,28,25,23,73,58,39,30.55,30.50,30.47,10,10,10,15,9,20,0.00,1,,17
2012-11-15,46,39,32,30,27,24,79,63,48,30.46,30.40,30.32,10,10,10,10,6,,0.00,1,,36
2012-11-16,48,40,33,30,26,23,79,61,41,30.46,30.37,30.32,10,10,10,8,5,,0.00,0,,353
2012-11-17,53,42,32,31,28,22,85,61,41,30.65,30.58,30.47,10,10,8,14,6,,0.00,0,,30
2012-11-18,50,42,34,37,33,27,79,70,54,30.66,30.62,30.56,10,10,10,13,8,16,0.00,4,,50
2012-11-19,51,44,36,39,36,32,86,72,62,30.53,30.39,30.26,10,10,10,13,9,17,0.00,5,,39
2012-11-20,51,44,36,39,33,29,89,66,43,30.24,30.18,30.13,10,10,10,8,5,,0.00,1,,33
2012-11-21,54,44,35,35,29,26,78,60,34,30.25,30.21,30.15,10,10,10,10,4,,0.00,0,,20
2012-11-22,55,44,34,39,33,24,89,68,51,30.29,30.23,30.17,10,10,7,9,3,,0.00,0,,29
2012-11-23,57,44,30,43,35,28,100,80,45,30.15,29.98,29.74,10,6,0,14,2,23,0.00,2,Fog-Rain,215
2012-11-24,48,42,36,28,21,19,57,47,40,29.94,29.85,29.74,10,10,10,20,15,32,0.00,5,,293
2012-11-25,39,34,28,22,20,18,72,55,46,30.01,29.97,29.94,10,10,10,18,11,24,0.00,3,,262
2012-11-26,48,36,25,25,22,19,81,57,35,30.27,30.16,30.01,10,10,10,13,4,17,0.00,0,,268
2012-11-27,37,36,34,36,33,27,96,89,70,30.29,30.25,30.21,10,5,2,12,6,,0.60,8,Rain,32
2012-11-28,41,36,32,33,26,21,89,69,49,30.35,30.27,30.22,10,10,9,15,7,22,0.00,3,,304
2012-11-29,45,36,28,25,22,19,79,58,40,30.43,30.37,30.34,10,10,9,17,6,22,0.00,0,,260
2012-11-30,46,36,26,39,28,23,97,73,44,30.43,30.39,30.36,10,8,5,9,2,,0.01,3,,58